www.pogodaiklimat.ru
ПОГОДА в Беллингхеме
Время
и дата
00:53 05.02
01:53 05.02
02:35 05.02
02:53 05.02
03:53 05.02
04:53 05.02
05:53 05.02
06:53 05.02
07:53 05.02
08:53 05.02
09:53 05.02
10:53 05.02
11:53 05.02
12:53 05.02
13:53 05.02
14:53 05.02
15:53 05.02
16:02 05.02
16:13 05.02
16:53 05.02
17:53 05.02
18:53 05.02
19:53 05.02
20:53 05.02
21:53 05.02
22:53 05.02
23:53 05.02
00:53 06.02
01:53 06.02
02:53 06.02
03:53 06.02
04:37 06.02
04:53 06.02
05:53 06.02
06:53 06.02
07:53 06.02
08:53 06.02
09:53 06.02
10:53 06.02
11:53 06.02
12:53 06.02
13:53 06.02
14:53 06.02
15:53 06.02
16:53 06.02
17:53 06.02
18:53 06.02
19:53 06.02
Ветер
(напр.,м/с)
Видим. Явления Облачность Т
(С)
Тd
(С)
f
(%)
Тe
(С)
Тes
(С)
Комфортность P
(гПа)
Po
(гПа)
Тmin
(С)
Tmax
(С)
R
(мм)
R24
(мм)
S
(см)
СВ 4 16 км слабый дождь 10/10 1440 m
[Ns]
+6.7 +6.7 100 +3 +3 1007.3 1001.0
СВ 4 13 км слабый дождь 10/10 1470 m
[Ns]
+6.7 +6.7 100 +3 +3 1006.9 1000.6
СВ 4 14 км слабый дождь 10/8 180 m
[Ac Ns]
+6.7 +6.7 100 +3 +3 999.6
СВ 4 16 км 10/2 1950 m
[Ac]
+6.7 +6.7 100 +3 +3 1005.9 999.6
СВ 4 16 км 10/0 2850 m
[Ac]
+6.1 +6.1 100 +2 +2 1005.8 999.6 +6.1 +9.4
С 3 16 км 10/0 2700 m
[Ac]
+6.1 +6.1 100 +3 +3 1006.0 999.9
С 3 16 км 10/0 2550 m
[Ac]
+6.1 +6.1 100 +3 +3 1006.4 1000.3
С 3 16 км 10/0 2400 m
[Ac]
+6.1 +5.6 97 +3 +3 1007.0 1000.6
С 2 16 км 10/0 2100 m
[Ac]
+5.6 +5.6 100 +3 +3 1007.6 1001.3
С 2 16 км 10/0 2250 m
[Ac]
+6.1 +6.1 100 +3 +3 1008.3 1002.0
штиль 0 16 км 10/0 2250 m
[Ac]
+6.7 +6.1 96 +6 +6 1009.3 1003.0 +5.6 +6.7
штиль 0 16 км слабый дождь 10/8 1800 m
[Ac Ns]
+7.2 +6.7 97 +6 +6 1010.7 1004.3
штиль 0 14 км слабый дождь 10/10 360 m
[Ns]
+7.2 +7.2 100 +6 +6 1011.5 1005.3
Ю 2 16 км слабый дождь 10/10 1410 m
[Ns]
+7.2 +7.2 100 +5 +5 1012.1 1005.7 0.3
Ю 2 16 км слабый дождь 8/8 300 m
[Ns]
+7.8 +7.8 100 +6 +6 1012.5 1006.3
Ю 2 16 км слабый дождь 8/8 240 m
[Ns]
+8.3 +7.8 97 +6 +7 1013.0 1006.7
Ю 4 16 км 10/10 450 м +8.3 +7.8 97 +5 +5 1014.2 1008.0 +6.7 +8.3 0.5
Ю 4 16 км 10/10 450 м +8.3 +7.8 97 +5 +5 1008.4
Ю 4 16 км 10/10 390 м +8.3 +7.8 97 +5 +5 1008.4
Ю 4 16 км 10/10 240 м +8.3 +7.8 97 +5 +5 1015.4 1009.0
Ю 4 16 км 10/10 360 м +8.3 +7.8 97 +5 +5 1016.5 1010.4
нст 2 16 км 10/10 360 м +8.3 +7.8 97 +6 +6 1018.2 1012.1
Ю 2 16 км 8/8 750 м +6.7 +6.7 100 +4 +4 1019.3 1013.1
Ю 2 16 км 5/5 1800 м +5.0 +5.0 100 +2 +2 1020.6 1014.1
Ю 4 16 км 8/8 600 м +7.8 +7.2 96 +4 +4 1021.8 1015.4 +4.4 +8.9
Ю 3 16 км ясно +7.8 +7.2 96 +5 +5 1022.7 1016.5
Ю 4 16 км 10/10 1080 м +7.8 +6.7 93 +4 +4 1023.7 1017.5
Ю 3 16 км 8/2 1080 m
[Ac]
+7.2 +6.7 97 +4 +4 1024.3 1017.8
Ю 3 16 км 10/2 1110 m
[Ac]
+7.8 +6.1 89 +5 +5 1025.4 1019.1
Ю 4 16 км 10/2 1350 m
[Ac]
+7.8 +6.1 89 +4 +4 1026.4 1020.2
Ю 4 11 км слабый дождь 10/10 1050 m
[Ns]
+7.2 +6.7 97 +3 +3 1026.9 1020.5 +7.2 +7.8 0.3 0.8
Ю 5 8 км слабый дождь, дымка 10/10 540 m
[Ns]
+6.7 +6.7 100 +2 +2 1020.5
Ю 4 6 км слабый дождь, дымка 10/10 600 m
[Ns]
+6.7 +6.7 100 +3 +3 1027.0 1020.5
Ю 5 10 км слабый дождь, дымка 10/10 330 m
[Ns]
+6.7 +6.7 100 +2 +2 1027.2 1020.8
Ю 7
{13}
16 км 10/10 480 м +7.2 +5.6 90 +2 +2 1027.4 1020.8 1.8
Ю 6
{12}
11 км 10/10 750 м +7.2 +5.6 90 +3 +3 1027.9 1021.5
Ю 7
{12}
16 км 10/8 420 m
[Ac]
+7.2 +6.1 93 +2 +2 1028.1 1021.8
Ю 5 16 км 10/5 1410 m
[Ac]
+7.8 +6.1 89 +4 +4 1027.8 1021.5 +6.7 +7.8 1.8
Ю 4 16 км 8/8 810 м +8.3 +6.1 86 +5 +5 1028.0 1021.5
Ю 4 16 км 10/10 300 м +8.3 +6.1 86 +5 +5 1028.2 1021.8
Ю 4
{9}
16 км 10/10 360 м +8.3 +6.7 90 +5 +5 1027.5 1021.2
Ю 6 16 км 10/10 360 м +8.9 +6.7 86 +5 +5 1027.0 1020.5
Ю 6
{10}
16 км 8/8 360 м +8.9 +6.7 86 +5 +5 1026.9 1020.5
Ю 5 16 км 8/8 510 m
[Ac]
+9.4 +6.7 83 +6 +6 1026.4 1020.2 +7.8 +9.4
ЮВ 6
{10}
16 км 10/2 630 m
[Ac]
+9.4 +7.2 86 +6 +6 1025.7 1019.5
ЮВ 6 16 км 8/5 450 m
[Ac]
+9.4 +6.7 83 +6 +6 1025.0 1018.8
Ю 8
{15}
16 км 10/2 750 m
[Ac]
+9.4 +6.1 80 +5 +5 1024.5 1018.1
Ю 11
{15}
16 км 10/0 2550 m
[Ac]
+9.4 +5.6 77 +5 +5 1023.9 1017.5
Местоположение метеостанции Bellingham International Airport: широта 48.7991 долгота -122.5406 высота над уровнем моря 45 м.
В архиве по умолчанию представлена погода в Беллингхеме за последние 1-2 суток. Обновление информации о фактической погоде в базе происходит ежечасно! Архивные данные за месяц целиком и за предыдущие месяцы Вы можете получить, выбрав интересующий диапазон дат из раскрывающегося списка и нажав кнопку "Ввод!".
Внимание! Архив погоды МЕТАР в базе сайта по станциям, не включенным в климатический монитор, хранится не более 60 дней. Нет смысла пытаться выбрать более раннюю дату.
*Определитесь, кто Вы:
Внимание! Время в таблицах - местное (без учета летнего времени). Для получения всемирного времени необходимо вычесть поправку, которая равна -8 ч.
Смотрите также архив погоды в соседних городах и на ближайших метеорологических станциях:
Партнеры нашего сайта:      
Пояснения к столбцам:
  • Ветер - указаны скорость ветра в м/с - средняя за 10 мин, порывы в срок и между сроками (в фигурных скобках) и направление, откуда дует ветер: С - северный,
  • СВ - северо-восточный, В - восточный, ЮВ - юго-восточный, Ю - южный, ЮЗ - юго-западный, З - западный, СЗ - северо-западный.
  • Видимость - горизонтальная дальность видимости в метрах или километрах. При видимости от 1 до 10 км при отсутствии осадков обычно наблюдается дымка, при ухудшении видимости до 1 км и менее - туман. В сухую погоду видимость может ухудшаться дымом, пылью или мглою.
  • Явления - указаны атмосферные явления, наблюдавшиеся в срок или в последний час перед сроком; фигурными скобками обозначены явления, наблюдавшиеся между сроками (за 1-3 часа до срока); квадратными скобками обозначены град или гололедные отложения с указанием их диаметра в мм.
  • Облачность - указаны через наклонную черту общая и нижняя облачность в баллах и высота нижней границы облаков в метрах; квадратными скобками обозначены формы облаков: Ci - перистые, Cs - перисто-слоистые, Cc - перисто-кучевые, Ac - высококучевые, As - высокослоистые, Sc - слоисто-кучевые, Ns - слоисто-дождевые, Cu - кучевые, Cb - кучево-дождевые. Подробнее классификацию облаков см. в Атласе облаков (PDF).
  • T - Температура воздуха - температура, измеренная на высоте 2 м над землей.
  • Td - Температура точки росы - температура, при понижении до которой содержащийся в воздухе водяной пар достигнет насыщения.
  • f - Относительная влажность воздуха - влажноcть воздуха, измеренная на высоте 2 м над землей.
  • Te - Эффективная температура - температура, которую ощущает одетый по сезону человек в тени. Характеристика душности погоды. При расчете учитывается влияние влажности воздуха и скорости ветра на теплоощущения человека.
  • Tes - Эффективная температура на солнце - температура, которую ощущает человек, с поправкой на солнечный нагрев. Характеристика знойности погоды. Зависит от высоты солнца над горизонтом, облачности и скорости ветра. Ночью, в пасмурную погоду, а также при ветре 12 м/с и более поправка равна нулю.
  • P - Атмосферное давление - приведенное к уровню моря атмосферное давление.
  • Po - Атмосферное давление - измеренное на уровне метеостанции атмосферное давление.
  • Tmin - Минимальная температура - минимум температуры воздуха на высоте 2 м над землей.
  • Tmax - Максимальная температура - максимум температуры воздуха на высоте 2 м над землей.
  • R - Количество осадков - Количество выпавших осадков за период времени, мм. При наведении курсора мыши на число - период времени, за который выпало указанное количество осадков.
  • R24 - Количество осадков - Количество выпавших осадков за 24 часа, мм.
  • S - Снежный покров - Высота снежного покрова, см. При наведении курсора мыши на число - состояние снежного покрова и степень покрытия местности в баллах.